To NAV CANADA Home Page Login to a new session Search on AWWS site Feedback and Comments Disclaimer Vers la page française équivalente Tips FAQ What's new on the site To the Forecasts and Observations / NOTAM section To "File a Flight Plan" website Publications and other links Update of the User's profile FIC Telephone Numbers My Weather Data Folder Route Weather Data Regional Weather Data Local Weather Data To the Forecasts and Observations / NOTAM section
Request Generated 10/17/2017 at 01:52:46 UTC . Weather information available at that time is displayed.

METAR/TAF

CHESTERFIELD INLET/NU    

LWIS CYCS 170100Z AUTO 01017KT M08/M10 A2975=
LWIS CYCS 170000Z AUTO 01015KT M07/M09 A2974=
LWIS CYCS 162300Z AUTO 02013KT M07/M09 A2973=

CYCS - No TAF is issued for this station

Your time UTC time
Weather data provided by Environment Canada and NAV CANADA